Location: Moscow
(55.7500°N, 37.5830°E)
Time: 20:46:42
(UTC+03:00)

Transit 2A Rocket - Pass Details

Date: 09 December 2021
Orbit: 584 x 917 km, 66.7° (Epoch: 23 January)

Event Time Altitude Azimuth Distance (km) Brightness Sun altitude
Rises 05:53:57 0° 169° (SSE) 3,372 8.6 -22.6°
Reaches altitude 10° 05:56:55 10° 153° (SSE) 2,493 8.1 -22.2°
Maximum altitude 06:01:05 21° 107° (ESE) 1,904 7.9 -21.6°
Drops below altitude 10° 06:05:25 10° 62° (ENE) 2,602 8.4 -21.0°
Sets 06:08:34 0° 47° (NE) 3,564 9.0 -20.5°
